Starlink 3291

operational
NORAD ID: 50175 Int'l Des: 2021-125 Owner: SPXS Country: US Constellation: starlink
LEOCIRCULAR

About Starlink 3291

Description loading...

Live Position

Loading 3D Globe...

Upcoming Passes

Altitude History

Altitude vs Time

uPlot chart will show altitude changes over time

Two-Line Element Set

1 50175U 21125V 26036.38125232 .00000852 00000-0 71628-4 0 9995
2 50175 53.2191 34.1577 0001772 88.4514 271.6681 15.08842279231727
Epoch: Feb 5, 2026 • Age: 7 hours

Current Status

Altitude 552.0 km
Velocity 7.59 km/s
Sub-Earth Point -35.48°S, 138.66°W
Launch Date Dec 18, 2021
Age 4.1 years
Type internet

Technical Details

Classification Payload
Mass 290.00 kg
Dry Mass 270.00 kg
Total Mass 290.00 kg
Length 0.20 m
Diameter 2.80 m
Span 9.00 m
Shape Box + pan
Manufacturer SPXS
Bus Type Starlink
Phase Status In Orbit
Owner/State SPXS/US

Large Constellations

Loading constellations...